Zurück zum Katalog

CZ-6A DEB

AktivPO
NORAD 60813·DEBRIS·🇨🇳 China

Gestartet Aug 6, 2024 von Taiyuan Satellite Launch Center

Loading…

Nächste Überflüge (nächste 24 Stunden)

TLE

AktuellSource: Space-Track

Epoche: Sep 14, 2026, 10:39 UTC

1 60813U 24140GQ  26257.44426757  .00000824  00000-0  32786-3 0  9993
2 60813  88.9164 256.2988 0024583 171.1277 189.0357 14.27600472108896

Verfolge CZ-6A DEB in Echtzeit mit AllMySat

Download on the App Store